Wind From: 11-12-2017 12:03 Until: 12-12-2017 06:00 warning for: Wind Level: Orange info button

Power and phone distribution networks may be disrupted for relatively long periods., Roofs and chimneys can be damaged. , Tree branches may break. , Vehicles can be deported. , Traffic may be disrupted, particularly on secondary roads in forest areas. Limit your trips. , Limit your speed in highway driving, especially if you drive a vehicle or hitch sensitive to wind. , Do not go for walks in forests or along the coast., In town, be vigilant against possible falling objects., Do not work on roofs and do not touch any electrical line fallen on the ground., Store or secure sensitive objects to wind or likely to be damaged., Always install power generators outside buildings. 


Meteo18 Weather Cam more information Meteo18 Weather Cam


Thunder radar more information blitzortung!


Rain radar more information rain snow radar


Visit our other weather sites:

Template documentation
and downloads

And another site



Weather Underground History page Text

Daily Summary for July 25, 2017 Units:  Metric    English   Both
« Previous Day
Next Day »
Daily Weekly Monthly Yearly Custom
  High: Low: Average:
Temperature: 21.3 °C 14.6 °C 17.4 °C
Dew Point: 14.7 °C 12.9 °C 13.8 °C
Humidity: 94 % 59 % 80 %
Wind Speed: 16.1 km/h 0.0 km/h 5.2 km/h
Wind Gust: 32.2 km/h - -
Wind:- - WNW
Pressure: 1018.5 hPa 1015.5 hPa -
Precipitation: 0.3 mm    
Historical Graphs
 
 
Tabular Data for July 25, 2017
Time Temperature Dew Point Pressure Wind Wind Speed Wind Gust Humidity Rainfall Rate (Hourly)
00:02 15.6 °C 13.4 °C 1018.5 hPa WNW 9.7 km/h 19.3 km/h 87 % 0.0 mm
00:12 15.4 °C 13.4 °C 1018.5 hPa WNW 3.2 km/h 24.1 km/h 88 % 0.0 mm
00:17 15.5 °C 13.5 °C 1018.5 hPa WNW 9.7 km/h 22.5 km/h 88 % 0.0 mm
00:22 15.5 °C 13.5 °C 1018.5 hPa WNW 8.0 km/h 16.1 km/h 88 % 0.0 mm
00:32 15.6 °C 13.4 °C 1018.5 hPa NW 4.8 km/h 17.7 km/h 87 % 0.0 mm
00:37 15.6 °C 13.4 °C 1018.5 hPa WNW 8.0 km/h 17.7 km/h 87 % 0.0 mm
00:42 15.7 °C 13.4 °C 1018.5 hPa West 6.4 km/h 17.7 km/h 86 % 0.0 mm
00:47 15.7 °C 13.4 °C 1018.5 hPa NNW 1.6 km/h 17.7 km/h 86 % 0.0 mm
00:57 15.9 °C 13.2 °C 1018.5 hPa WNW 4.8 km/h 32.2 km/h 84 % 0.0 mm
01:02 15.9 °C 13.2 °C 1018.5 hPa WNW 16.1 km/h 32.2 km/h 84 % 0.0 mm
01:12 15.8 °C 13.5 °C 1018.5 hPa WNW 6.4 km/h 32.2 km/h 86 % 0.0 mm
01:17 15.8 °C 13.5 °C 1018.5 hPa West 9.7 km/h 17.7 km/h 86 % 0.0 mm
01:22 15.8 °C 13.5 °C 1018.2 hPa WNW 12.9 km/h 17.7 km/h 86 % 0.0 mm
01:32 15.8 °C 13.5 °C 1018.2 hPa WNW 1.6 km/h 12.9 km/h 86 % 0.0 mm
01:37 15.8 °C 13.5 °C 1018.2 hPa NW 3.2 km/h 14.5 km/h 86 % 0.0 mm
01:42 15.7 °C 13.4 °C 1018.2 hPa NW 3.2 km/h 14.5 km/h 86 % 0.0 mm
01:52 15.7 °C 13.4 °C 1018.2 hPa NW 1.6 km/h 14.5 km/h 86 % 0.0 mm
01:57 15.7 °C 13.4 °C 1018.2 hPa WNW 8.0 km/h 11.3 km/h 86 % 0.0 mm
02:02 15.7 °C 13.4 °C 1018.2 hPa NNW 3.2 km/h 11.3 km/h 86 % 0.0 mm
02:12 15.7 °C 13.4 °C 1018.2 hPa WNW 3.2 km/h 11.3 km/h 86 % 0.0 mm
02:17 15.7 °C 13.4 °C 1018.2 hPa WNW 1.6 km/h 9.7 km/h 86 % 0.0 mm
02:22 15.7 °C 13.4 °C 1018.2 hPa WNW 3.2 km/h 9.7 km/h 86 % 0.0 mm
02:32 15.7 °C 13.4 °C 1018.2 hPa NW 1.6 km/h 11.3 km/h 86 % 0.0 mm
02:42 15.7 °C 13.2 °C 1018.2 hPa NNW 8.0 km/h 14.5 km/h 85 % 0.0 mm
02:47 15.8 °C 13.3 °C 1018.2 hPa West 6.4 km/h 16.1 km/h 85 % 0.0 mm
02:52 15.8 °C 13.3 °C 1017.8 hPa NNW 4.8 km/h 16.1 km/h 85 % 0.0 mm
02:57 15.7 °C 13.2 °C 1017.8 hPa WNW 4.8 km/h 17.7 km/h 85 % 0.0 mm
03:02 15.7 °C 13.2 °C 1017.8 hPa Calm   17.7 km/h 85 % 0.0 mm
03:12 15.8 °C 13.1 °C 1017.8 hPa West 6.4 km/h 12.9 km/h 84 % 0.0 mm
03:17 15.8 °C 13.1 °C 1017.8 hPa NW 4.8 km/h 14.5 km/h 84 % 0.0 mm
03:32 15.7 °C 13.2 °C 1017.5 hPa WNW 4.8 km/h 14.5 km/h 85 % 0.0 mm
03:42 15.7 °C 13.4 °C 1017.5 hPa West 4.8 km/h 14.5 km/h 86 % 0.0 mm
03:47 15.6 °C 13.3 °C 1017.5 hPa WNW 11.3 km/h 16.1 km/h 86 % 0.0 mm
03:52 15.6 °C 13.3 °C 1017.5 hPa WNW 9.7 km/h 16.1 km/h 86 % 0.0 mm
03:57 15.6 °C 13.4 °C 1017.5 hPa WNW 8.0 km/h 16.1 km/h 87 % 0.0 mm
04:02 15.5 °C 13.3 °C 1017.5 hPa NW 4.8 km/h 16.1 km/h 87 % 0.0 mm
04:12 15.4 °C 13.4 °C 1017.5 hPa WNW 12.9 km/h 16.1 km/h 88 % 0.0 mm
04:17 15.3 °C 13.3 °C 1017.5 hPa NW 8.0 km/h 16.1 km/h 88 % 0.0 mm
04:22 15.2 °C 13.4 °C 1017.5 hPa WNW 4.8 km/h 16.1 km/h 89 % 0.0 mm
04:32 15.0 °C 13.4 °C 1017.5 hPa WNW 4.8 km/h 14.5 km/h 90 % 0.0 mm
04:37 14.9 °C 13.4 °C 1017.5 hPa WNW 9.7 km/h 16.1 km/h 91 % 0.0 mm
04:42 14.8 °C 13.3 °C 1017.2 hPa WNW 6.4 km/h 16.1 km/h 91 % 0.0 mm
04:52 14.7 °C 13.4 °C 1017.2 hPa WNW 1.6 km/h 14.5 km/h 92 % 0.0 mm
05:02 14.6 °C 13.5 °C 1017.2 hPa WNW 1.6 km/h 9.7 km/h 93 % 0.3 mm
05:07 14.6 °C 13.5 °C 1017.2 hPa WNW 1.6 km/h 8.0 km/h 93 % 0.3 mm
05:12 14.6 °C 13.5 °C 1017.2 hPa West 1.6 km/h 8.0 km/h 93 % 0.3 mm
05:17 14.6 °C 13.5 °C 1017.2 hPa WSW 1.6 km/h 4.8 km/h 93 % 0.3 mm
05:22 14.6 °C 13.5 °C 1017.2 hPa West 1.6 km/h 4.8 km/h 93 % 0.3 mm
05:32 14.6 °C 13.5 °C 1017.2 hPa West 1.6 km/h 4.8 km/h 93 % 0.3 mm
05:42 14.6 °C 13.5 °C 1017.2 hPa Calm   6.4 km/h 93 % 0.3 mm
05:52 14.6 °C 13.5 °C 1017.2 hPa West 1.6 km/h 6.4 km/h 93 % 0.3 mm
06:02 14.6 °C 13.5 °C 1017.2 hPa Calm   6.4 km/h 93 % 0.0 mm
06:12 14.6 °C 13.6 °C 1017.2 hPa Calm   3.2 km/h 94 % 0.0 mm
06:17 14.6 °C 13.6 °C 1017.2 hPa Calm   6.4 km/h 94 % 0.0 mm
06:22 14.6 °C 13.6 °C 1017.2 hPa Calm   6.4 km/h 94 % 0.0 mm
06:27 14.7 °C 13.7 °C 1017.2 hPa SW 1.6 km/h 3.2 km/h 94 % 0.0 mm
06:32 14.7 °C 13.7 °C 1017.2 hPa West 4.8 km/h 4.8 km/h 94 % 0.0 mm
06:37 14.8 °C 13.7 °C 1017.2 hPa WNW 1.6 km/h 3.2 km/h 93 % 0.0 mm
06:42 14.8 °C 13.7 °C 1017.2 hPa West 4.8 km/h 8.0 km/h 93 % 0.0 mm
06:52 14.9 °C 13.8 °C 1017.2 hPa West 1.6 km/h 8.0 km/h 93 % 0.0 mm
06:57 14.9 °C 13.8 °C 1016.8 hPa West 1.6 km/h 11.3 km/h 93 % 0.0 mm
07:02 14.9 °C 13.8 °C 1016.8 hPa WNW 3.2 km/h 11.3 km/h 93 % 0.0 mm
07:07 15.0 °C 13.9 °C 1017.2 hPa WSW 1.6 km/h 11.3 km/h 93 % 0.0 mm
07:12 15.0 °C 13.9 °C 1016.8 hPa WNW 6.4 km/h 6.4 km/h 93 % 0.0 mm
07:17 15.1 °C 14.0 °C 1016.8 hPa WNW 8.0 km/h 8.0 km/h 93 % 0.0 mm
07:22 15.1 °C 14.0 °C 1016.8 hPa North 1.6 km/h 9.7 km/h 93 % 0.0 mm
07:32 15.2 °C 14.1 °C 1016.8 hPa WNW 6.4 km/h 9.7 km/h 93 % 0.0 mm
07:42 15.3 °C 14.2 °C 1016.8 hPa WNW 1.6 km/h 11.3 km/h 93 % 0.0 mm
07:52 15.3 °C 14.0 °C 1016.8 hPa WNW 1.6 km/h 8.0 km/h 92 % 0.0 mm
08:02 15.4 °C 14.1 °C 1016.8 hPa Calm   12.9 km/h 92 % 0.0 mm
08:12 15.5 °C 14.2 °C 1016.8 hPa NW 8.0 km/h 12.9 km/h 92 % 0.0 mm
08:17 15.5 °C 14.2 °C 1017.2 hPa WNW 6.4 km/h 12.9 km/h 92 % 0.0 mm
08:22 15.5 °C 14.2 °C 1017.2 hPa Calm   12.9 km/h 92 % 0.0 mm
08:27 15.5 °C 14.2 °C 1017.2 hPa WNW 4.8 km/h 12.9 km/h 92 % 0.0 mm
08:32 15.6 °C 14.3 °C 1017.2 hPa NNW 8.0 km/h 12.9 km/h 92 % 0.0 mm
08:37 15.6 °C 14.1 °C 1017.2 hPa West 3.2 km/h 12.9 km/h 91 % 0.0 mm
08:42 15.6 °C 14.1 °C 1017.2 hPa WNW 3.2 km/h 14.5 km/h 91 % 0.0 mm
08:47 15.6 °C 14.1 °C 1017.2 hPa West 3.2 km/h 14.5 km/h 91 % 0.0 mm
08:57 16.2 °C 14.7 °C 1017.2 hPa WNW 8.0 km/h 17.7 km/h 91 % 0.0 mm
09:02 16.3 °C 14.5 °C 1017.2 hPa West 8.0 km/h 14.5 km/h 89 % 0.0 mm
09:12 16.3 °C 14.5 °C 1017.2 hPa WNW 4.8 km/h 16.1 km/h 89 % 0.0 mm
09:17 16.3 °C 14.3 °C 1017.2 hPa WNW 6.4 km/h 16.1 km/h 88 % 0.0 mm
09:22 16.3 °C 14.3 °C 1017.2 hPa NW 4.8 km/h 16.1 km/h 88 % 0.0 mm
09:32 16.4 °C 14.4 °C 1017.2 hPa WNW 1.6 km/h 19.3 km/h 88 % 0.0 mm
09:37 16.6 °C 14.4 °C 1017.2 hPa WNW 6.4 km/h 19.3 km/h 87 % 0.0 mm
09:42 16.4 °C 14.2 °C 1017.2 hPa WNW 11.3 km/h 16.1 km/h 87 % 0.0 mm
09:47 16.4 °C 14.2 °C 1017.2 hPa NW 3.2 km/h 16.1 km/h 87 % 0.0 mm
10:02 16.7 °C 14.2 °C 1017.2 hPa WNW 9.7 km/h 16.1 km/h 85 % 0.0 mm
10:12 16.8 °C 14.3 °C 1017.2 hPa West 1.6 km/h 16.1 km/h 85 % 0.0 mm
10:17 16.9 °C 14.4 °C 1017.2 hPa NW 6.4 km/h 16.1 km/h 85 % 0.0 mm
10:22 16.9 °C 14.0 °C 1017.2 hPa WNW 3.2 km/h 12.9 km/h 83 % 0.0 mm
10:32 17.2 °C 13.9 °C 1017.2 hPa WNW 3.2 km/h 17.7 km/h 81 % 0.0 mm
10:42 17.6 °C 13.9 °C 1017.2 hPa WNW 8.0 km/h 19.3 km/h 79 % 0.0 mm
10:47 17.6 °C 13.9 °C 1017.2 hPa West 9.7 km/h 19.3 km/h 79 % 0.0 mm
10:52 17.7 °C 13.8 °C 1017.2 hPa WNW 9.7 km/h 20.9 km/h 78 % 0.0 mm
10:57 17.7 °C 13.8 °C 1017.2 hPa WNW 14.5 km/h 20.9 km/h 78 % 0.0 mm
11:02 17.6 °C 13.5 °C 1017.2 hPa WNW 8.0 km/h 17.7 km/h 77 % 0.0 mm
11:12 17.4 °C 13.7 °C 1017.2 hPa NW 16.1 km/h 22.5 km/h 79 % 0.0 mm
11:17 17.6 °C 14.1 °C 1017.2 hPa WNW 3.2 km/h 22.5 km/h 80 % 0.0 mm
11:22 17.8 °C 14.1 °C 1017.2 hPa NNE 3.2 km/h 19.3 km/h 79 % 0.0 mm
11:27 18.0 °C 14.1 °C 1017.2 hPa WNW 8.0 km/h 19.3 km/h 78 % 0.0 mm
11:32 18.2 °C 14.1 °C 1016.8 hPa WNW 3.2 km/h 14.5 km/h 77 % 0.0 mm
11:42 17.8 °C 13.7 °C 1017.2 hPa NW 6.4 km/h 20.9 km/h 77 % 0.0 mm
11:47 17.8 °C 13.7 °C 1017.2 hPa WNW 9.7 km/h 20.9 km/h 77 % 0.0 mm
11:52 17.6 °C 13.7 °C 1017.2 hPa NNW 3.2 km/h 20.9 km/h 78 % 0.0 mm
12:02 17.1 °C 13.8 °C 1017.2 hPa WNW 4.8 km/h 16.1 km/h 81 % 0.0 mm
12:12 16.9 °C 14.2 °C 1017.2 hPa WNW 3.2 km/h 16.1 km/h 84 % 0.0 mm
12:17 17.1 °C 14.4 °C 1017.2 hPa NNW 1.6 km/h 16.1 km/h 84 % 0.0 mm
12:22 17.2 °C 14.5 °C 1017.2 hPa WNW 3.2 km/h 9.7 km/h 84 % 0.0 mm
12:32 17.6 °C 14.3 °C 1017.2 hPa Calm   9.7 km/h 81 % 0.0 mm
12:37 17.7 °C 14.0 °C 1017.2 hPa NW 6.4 km/h 12.9 km/h 79 % 0.0 mm
12:42 17.7 °C 14.2 °C 1017.2 hPa NW 9.7 km/h 12.9 km/h 80 % 0.0 mm
12:47 17.6 °C 14.1 °C 1017.2 hPa NW 4.8 km/h 12.9 km/h 80 % 0.0 mm
12:52 17.6 °C 14.3 °C 1017.2 hPa NW 4.8 km/h 17.7 km/h 81 % 0.0 mm
13:02 17.6 °C 14.5 °C 1017.2 hPa North 11.3 km/h 17.7 km/h 82 % 0.0 mm
13:07 17.6 °C 14.3 °C 1017.2 hPa NW 8.0 km/h 11.3 km/h 81 % 0.0 mm
13:12 17.6 °C 14.3 °C 1017.2 hPa WNW 9.7 km/h 11.3 km/h 81 % 0.0 mm
13:17 17.6 °C 14.5 °C 1017.2 hPa NW 3.2 km/h 11.3 km/h 82 % 0.0 mm
13:22 17.7 °C 14.4 °C 1017.2 hPa WNW 6.4 km/h 12.9 km/h 81 % 0.0 mm
13:32 17.8 °C 14.5 °C 1016.8 hPa NW 4.8 km/h 9.7 km/h 81 % 0.0 mm
13:42 17.9 °C 14.4 °C 1017.2 hPa WNW 12.9 km/h 16.1 km/h 80 % 0.0 mm
13:52 17.9 °C 14.2 °C 1016.8 hPa WNW 9.7 km/h 14.5 km/h 79 % 0.0 mm
13:57 17.9 °C 14.2 °C 1016.8 hPa NW 4.8 km/h 14.5 km/h 79 % 0.0 mm
14:02 18.0 °C 14.3 °C 1016.8 hPa NW 3.2 km/h 17.7 km/h 79 % 0.0 mm
14:07 18.2 °C 14.1 °C 1016.8 hPa WNW 12.9 km/h 17.7 km/h 77 % 0.0 mm
14:12 18.4 °C 14.3 °C 1016.8 hPa WNW 8.0 km/h 17.7 km/h 77 % 0.0 mm
14:17 18.7 °C 14.4 °C 1016.8 hPa NNW 3.2 km/h 17.7 km/h 76 % 0.0 mm
14:27 19.1 °C 13.7 °C 1016.5 hPa West 6.4 km/h 17.7 km/h 71 % 0.0 mm
14:32 19.2 °C 13.8 °C 1016.5 hPa WNW 12.9 km/h 17.7 km/h 71 % 0.0 mm
14:42 19.1 °C 14.1 °C 1016.8 hPa WNW 3.2 km/h 17.7 km/h 73 % 0.0 mm
14:47 19.1 °C 13.9 °C 1016.5 hPa SW 6.4 km/h 17.7 km/h 72 % 0.0 mm
14:52 19.4 °C 14.6 °C 1016.5 hPa WNW 4.8 km/h 14.5 km/h 74 % 0.0 mm
15:02 19.9 °C 13.8 °C 1016.5 hPa WNW 6.4 km/h 14.5 km/h 68 % 0.0 mm
15:07 19.8 °C 13.9 °C 1016.5 hPa Calm   12.9 km/h 69 % 0.0 mm
15:12 19.7 °C 13.9 °C 1016.5 hPa WNW 6.4 km/h 12.9 km/h 69 % 0.0 mm
15:17 19.5 °C 13.4 °C 1016.5 hPa West 6.4 km/h 12.9 km/h 68 % 0.0 mm
15:22 19.1 °C 13.9 °C 1016.5 hPa WNW 11.3 km/h 12.9 km/h 72 % 0.0 mm
15:27 18.6 °C 13.9 °C 1016.5 hPa West 16.1 km/h 20.9 km/h 74 % 0.0 mm
15:32 18.4 °C 14.3 °C 1016.5 hPa West 6.4 km/h 20.9 km/h 77 % 0.0 mm
15:37 18.4 °C 14.3 °C 1016.5 hPa WNW 12.9 km/h 20.9 km/h 77 % 0.0 mm
15:42 18.5 °C 14.4 °C 1016.5 hPa West 6.4 km/h 20.9 km/h 77 % 0.0 mm
15:47 18.6 °C 14.5 °C 1016.5 hPa NW 8.0 km/h 16.1 km/h 77 % 0.0 mm
15:52 18.8 °C 14.5 °C 1016.5 hPa SW 6.4 km/h 16.1 km/h 76 % 0.0 mm
16:02 18.7 °C 14.4 °C 1016.5 hPa WNW 11.3 km/h 12.9 km/h 76 % 0.0 mm
16:12 18.4 °C 14.3 °C 1016.5 hPa Calm   19.3 km/h 77 % 0.0 mm
16:17 18.6 °C 14.3 °C 1016.1 hPa West 3.2 km/h 19.3 km/h 76 % 0.0 mm
16:22 18.9 °C 14.2 °C 1016.1 hPa WNW 8.0 km/h 17.7 km/h 74 % 0.0 mm
16:32 19.6 °C 14.4 °C 1016.1 hPa WNW 14.5 km/h 14.5 km/h 72 % 0.0 mm
16:37 20.0 °C 14.4 °C 1016.1 hPa SW 3.2 km/h 17.7 km/h 70 % 0.0 mm
16:52 20.4 °C 13.1 °C 1016.1 hPa WNW 12.9 km/h 22.5 km/h 63 % 0.0 mm
16:57 20.6 °C 13.6 °C 1016.1 hPa NNW 8.0 km/h 24.1 km/h 64 % 0.0 mm
17:02 20.7 °C 13.4 °C 1015.8 hPa NNW 8.0 km/h 24.1 km/h 63 % 0.0 mm
17:12 20.9 °C 13.3 °C 1015.8 hPa WNW 12.9 km/h 24.1 km/h 62 % 0.0 mm
17:17 20.8 °C 13.3 °C 1015.8 hPa NW 6.4 km/h 25.7 km/h 62 % 0.0 mm
17:22 20.7 °C 13.2 °C 1015.8 hPa North 4.8 km/h 25.7 km/h 62 % 0.0 mm
17:32 20.5 °C 13.2 °C 1015.8 hPa WNW 9.7 km/h 20.9 km/h 63 % 0.0 mm
17:37 20.6 °C 13.3 °C 1015.8 hPa West 11.3 km/h 20.9 km/h 63 % 0.0 mm
17:42 20.7 °C 13.4 °C 1015.8 hPa West 8.0 km/h 20.9 km/h 63 % 0.0 mm
17:47 21.1 °C 13.8 °C 1015.8 hPa SW 11.3 km/h 22.5 km/h 63 % 0.0 mm
17:52 21.2 °C 13.9 °C 1015.8 hPa West 8.0 km/h 24.1 km/h 63 % 0.0 mm
17:57 21.3 °C 13.7 °C 1015.8 hPa NNW 9.7 km/h 24.1 km/h 62 % 0.0 mm
18:02 21.2 °C 13.6 °C 1015.8 hPa West 8.0 km/h 24.1 km/h 62 % 0.0 mm
18:12 20.9 °C 13.3 °C 1016.1 hPa NNW 11.3 km/h 19.3 km/h 62 % 0.0 mm
18:17 20.8 °C 13.3 °C 1015.8 hPa WNW 3.2 km/h 19.3 km/h 62 % 0.0 mm
18:22 21.0 °C 13.4 °C 1015.8 hPa WNW 6.4 km/h 19.3 km/h 62 % 0.0 mm
18:32 21.1 °C 13.0 °C 1015.8 hPa WNW 14.5 km/h 25.7 km/h 60 % 0.0 mm
18:37 20.9 °C 13.1 °C 1015.8 hPa WNW 8.0 km/h 25.7 km/h 61 % 0.0 mm
18:42 20.9 °C 13.1 °C 1015.8 hPa West 11.3 km/h 25.7 km/h 61 % 0.0 mm
18:52 21.1 °C 13.0 °C 1015.8 hPa WNW 11.3 km/h 20.9 km/h 60 % 0.0 mm
19:02 21.1 °C 13.0 °C 1015.8 hPa NW 4.8 km/h 20.9 km/h 60 % 0.0 mm
19:12 20.9 °C 13.1 °C 1015.8 hPa NNW 6.4 km/h 19.3 km/h 61 % 0.0 mm
19:17 21.0 °C 13.2 °C 1015.5 hPa WNW 1.6 km/h 16.1 km/h 61 % 0.0 mm
19:22 21.1 °C 13.3 °C 1015.5 hPa WNW 4.8 km/h 16.1 km/h 61 % 0.0 mm
19:27 21.1 °C 13.3 °C 1015.5 hPa Calm   12.9 km/h 61 % 0.0 mm
19:32 21.2 °C 12.9 °C 1015.5 hPa WNW 16.1 km/h 16.1 km/h 59 % 0.0 mm
19:42 21.1 °C 13.0 °C 1015.5 hPa West 6.4 km/h 20.9 km/h 60 % 0.0 mm
19:47 21.1 °C 13.3 °C 1015.5 hPa NW 6.4 km/h 19.3 km/h 61 % 0.0 mm
19:52 20.9 °C 13.1 °C 1015.5 hPa WNW 4.8 km/h 19.3 km/h 61 % 0.0 mm
20:02 20.6 °C 13.1 °C 1015.5 hPa WNW 6.4 km/h 16.1 km/h 62 % 0.0 mm
20:12 20.7 °C 13.4 °C 1015.5 hPa WNW 8.0 km/h 16.1 km/h 63 % 0.0 mm
20:17 20.5 °C 13.2 °C 1015.5 hPa West 6.4 km/h 14.5 km/h 63 % 0.0 mm
20:22 20.3 °C 13.3 °C 1015.5 hPa NW 3.2 km/h 12.9 km/h 64 % 0.0 mm
20:27 20.2 °C 13.4 °C 1015.5 hPa WNW 3.2 km/h 12.9 km/h 65 % 0.0 mm
20:32 20.0 °C 13.5 °C 1015.5 hPa WNW 4.8 km/h 12.9 km/h 66 % 0.0 mm
20:37 19.9 °C 13.6 °C 1015.5 hPa WNW 1.6 km/h 8.0 km/h 67 % 0.0 mm
20:47 19.6 °C 13.8 °C 1015.5 hPa WNW 6.4 km/h 8.0 km/h 69 % 0.0 mm
20:52 19.4 °C 13.8 °C 1015.8 hPa West 3.2 km/h 8.0 km/h 70 % 0.0 mm
20:57 19.3 °C 13.7 °C 1015.8 hPa WSW 3.2 km/h 6.4 km/h 70 % 0.0 mm
21:02 19.2 °C 14.0 °C 1015.8 hPa West 1.6 km/h 6.4 km/h 72 % 0.0 mm
21:12 18.8 °C 14.1 °C 1015.8 hPa WSW 1.6 km/h 6.4 km/h 74 % 0.0 mm
21:17 18.7 °C 14.2 °C 1015.8 hPa West 3.2 km/h 8.0 km/h 75 % 0.0 mm
21:22 18.6 °C 14.3 °C 1015.8 hPa Calm   8.0 km/h 76 % 0.0 mm
21:32 18.3 °C 14.4 °C 1015.8 hPa Calm   4.8 km/h 78 % 0.0 mm
21:37 18.2 °C 14.3 °C 1015.8 hPa Calm   4.8 km/h 78 % 0.0 mm
21:42 18.1 °C 14.4 °C 1015.8 hPa Calm   4.8 km/h 79 % 0.0 mm
21:52 17.8 °C 14.3 °C 1015.8 hPa Calm   3.2 km/h 80 % 0.0 mm
21:57 17.7 °C 14.4 °C 1015.8 hPa Calm   1.6 km/h 81 % 0.0 mm
22:02 17.4 °C 14.3 °C 1015.8 hPa Calm   1.6 km/h 82 % 0.0 mm
22:12 17.2 °C 14.3 °C 1015.8 hPa Calm   1.6 km/h 83 % 0.0 mm
22:22 17.0 °C 14.5 °C 1015.8 hPa Calm   1.6 km/h 85 % 0.0 mm
22:32 16.8 °C 14.3 °C 1015.8 hPa Calm   1.6 km/h 85 % 0.0 mm
22:37 16.8 °C 14.3 °C 1015.8 hPa Calm   1.6 km/h 85 % 0.0 mm
22:42 16.8 °C 14.4 °C 1015.8 hPa Calm   1.6 km/h 86 % 0.0 mm
22:47 16.8 °C 14.4 °C 1015.8 hPa Calm   1.6 km/h 86 % 0.0 mm
22:52 16.8 °C 14.4 °C 1015.8 hPa Calm     86 % 0.0 mm
22:57 16.8 °C 14.4 °C 1015.8 hPa Calm     86 % 0.0 mm
23:02 16.8 °C 14.4 °C 1015.5 hPa Calm     86 % 0.0 mm
23:07 16.5 °C 14.1 °C 1015.8 hPa Calm     86 % 0.0 mm
23:17 16.0 °C 14.0 °C 1015.8 hPa Calm     88 % 0.0 mm
23:22 15.9 °C 14.1 °C 1015.8 hPa Calm     89 % 0.0 mm
23:27 16.1 °C 14.3 °C 1015.8 hPa Calm     89 % 0.0 mm
23:32 16.1 °C 14.3 °C 1015.8 hPa Calm     89 % 0.0 mm
23:37 15.9 °C 13.9 °C 1015.8 hPa Calm     88 % 0.0 mm
23:42 15.7 °C 13.7 °C 1015.8 hPa Calm     88 % 0.0 mm
23:47 15.6 °C 13.8 °C 1015.8 hPa Calm     89 % 0.0 mm
23:52 15.6 °C 14.0 °C 1015.8 hPa Calm     90 % 0.0 mm
23:57 15.6 °C 14.0 °C 1015.5 hPa Calm   1.6 km/h 90 % 0.0 mm
Meteo18
Compliments of Weather Underground - 4 mb

Script developed by  Jim McMurry - jmcmurry@mwt.net Adapted for the template by  Wim van der Kuil - Leuven-Template.eu

You find our weather info also at:

European Weather Network

Weather Underground

Equipment we use:

Weather-station
Davis Vue

Weather-program
Meteohub

Weather-server
Raspberry PI 2 B+

Provider
1 and 1

Davis Vue

Meteohub

Raspberry PI 2 B+

1 and 1